Time,TemperatureF,DewpointF,PressureIn,WindDirection,WindDirectionDegrees,WindSpeedMPH,WindSpeedGustMPH,Humidity,HourlyPrecipIn,Conditions,Clouds,dailyrainin,SoftwareType,DateUTC
2014-10-01 00:05:00,66.5,43.3,29.86,NW,306,7.0,14.0,43,0.00,,,0.00,Wunderground v.1.15,2014-10-01 07:05:00,
2014-10-01 00:10:00,66.4,43.2,29.86,NNW,336,8.0,8.0,43,0.00,,,0.00,Wunderground v.1.15,2014-10-01 07:10:00,
2014-10-01 00:15:00,66.3,43.1,29.86,NW,305,9.0,10.0,43,0.00,,,0.00,Wunderground v.1.15,2014-10-01 07:15:00,
2014-10-01 00:25:00,65.9,43.4,29.86,NW,305,8.0,9.0,44,0.00,,,0.00,Wunderground v.1.15,2014-10-01 07:25:00,
2014-10-01 00:30:00,65.8,43.3,29.86,NW,313,8.0,9.0,44,0.00,,,0.00,Wunderground v.1.15,2014-10-01 07:30:00,
2014-10-01 00:35:00,65.8,43.9,29.86,NW,306,8.0,9.0,45,0.00,,,0.00,Wunderground v.1.15,2014-10-01 07:35:00,
2014-10-01 00:40:00,65.6,43.7,29.86,WNW,303,7.0,11.0,45,0.00,,,0.00,Wunderground v.1.15,2014-10-01 07:40:00,
2014-10-01 00:50:00,65.6,43.7,29.86,NW,308,8.0,8.0,45,0.00,,,0.00,Wunderground v.1.15,2014-10-01 07:50:00,
2014-10-01 00:55:00,65.5,43.6,29.86,WNW,302,6.0,9.0,45,0.00,,,0.00,Wunderground v.1.15,2014-10-01 07:55:00,
2014-10-01 01:00:00,65.5,43.6,29.87,WNW,294,6.0,7.0,45,0.00,,,0.00,Wunderground v.1.15,2014-10-01 08:00:00,
2014-10-01 01:05:00,65.4,43.5,29.87,NNW,327,4.0,7.0,45,0.00,,,0.00,Wunderground v.1.15,2014-10-01 08:05:00,
2014-10-01 01:10:00,65.4,43.5,29.87,NW,307,4.0,7.0,45,0.00,,,0.00,Wunderground v.1.15,2014-10-01 08:10:00,
2014-10-01 01:15:00,65.4,43.5,29.87,NNW,333,6.0,7.0,45,0.00,,,0.00,Wunderground v.1.15,2014-10-01 08:15:00,
2014-10-01 01:25:00,65.2,43.9,29.87,WNW,285,4.0,12.0,46,0.00,,,0.00,Wunderground v.1.15,2014-10-01 08:25:00,
2014-10-01 01:30:00,65.1,43.8,29.87,NW,325,5.0,5.0,46,0.00,,,0.00,Wunderground v.1.15,2014-10-01 08:30:00,
2014-10-01 01:40:00,64.7,43.4,29.87,WNW,295,4.0,4.0,46,0.00,,,0.00,Wunderground v.1.15,2014-10-01 08:40:00,
2014-10-01 01:50:00,64.6,43.9,29.87,NW,313,6.0,11.0,47,0.00,,,0.00,Wunderground v.1.15,2014-10-01 08:50:00,
2014-10-01 01:55:00,64.5,43.8,29.88,NW,321,6.0,11.0,47,0.00,,,0.00,Wunderground v.1.15,2014-10-01 08:55:00,
2014-10-01 02:00:00,64.4,43.7,29.88,North,10,5.0,5.0,47,0.00,,,0.00,Wunderground v.1.15,2014-10-01 09:00:00,
2014-10-01 02:05:00,64.3,43.6,29.88,NW,306,4.0,7.0,47,0.00,,,0.00,Wunderground v.1.15,2014-10-01 09:05:00,
2014-10-01 02:15:00,64.3,43.6,29.88,WNW,300,7.0,10.0,47,0.00,,,0.00,Wunderground v.1.15,2014-10-01 09:15:00,
2014-10-01 02:20:00,64.2,43.5,29.88,NNW,329,7.0,7.0,47,0.00,,,0.00,Wunderground v.1.15,2014-10-01 09:20:00,
2014-10-01 02:25:00,64.2,43.5,29.88,NW,305,6.0,7.0,47,0.00,,,0.00,Wunderground v.1.15,2014-10-01 09:25:00,
2014-10-01 02:35:00,63.9,43.8,29.88,NNW,339,4.0,11.0,48,0.00,,,0.00,Wunderground v.1.15,2014-10-01 09:35:00,
2014-10-01 02:40:00,63.8,43.7,29.89,West,279,5.0,5.0,48,0.00,,,0.00,Wunderground v.1.15,2014-10-01 09:40:00,
2014-10-01 02:45:00,63.6,43.5,29.89,NNW,341,4.0,5.0,48,0.00,,,0.00,Wunderground v.1.15,2014-10-01 09:45:00,
2014-10-01 02:50:00,63.4,43.9,29.89,NW,324,4.0,4.0,49,0.00,,,0.00,Wunderground v.1.15,2014-10-01 09:50:00,
2014-10-01 02:55:00,63.2,43.7,29.89,NNW,342,3.0,4.0,49,0.00,,,0.00,Wunderground v.1.15,2014-10-01 09:55:00,
2014-10-01 03:00:00,63.1,43.6,29.89,NNW,333,2.0,3.0,49,0.00,,,0.00,Wunderground v.1.15,2014-10-01 10:00:00,
2014-10-01 03:10:00,62.9,43.4,29.89,NW,309,2.0,2.0,49,0.00,,,0.00,Wunderground v.1.15,2014-10-01 10:10:00,
2014-10-01 03:15:00,62.6,43.2,29.89,NW,309,0.0,2.0,49,0.00,,,0.00,Wunderground v.1.15,2014-10-01 10:15:00,
2014-10-01 03:25:00,62.0,43.1,29.89,NW,309,0.0,0.0,50,0.00,,,0.00,Wunderground v.1.15,2014-10-01 10:25:00,
2014-10-01 03:35:00,61.4,43.1,29.89,NW,309,0.0,0.0,51,0.00,,,0.00,Wunderground v.1.15,2014-10-01 10:35:00,
2014-10-01 03:40:00,61.0,43.2,29.89,NW,309,0.0,0.0,52,0.00,,,0.00,Wunderground v.1.15,2014-10-01 10:40:00,
2014-10-01 03:45:00,60.7,43.0,29.89,NW,309,0.0,0.0,52,0.00,,,0.00,Wunderground v.1.15,2014-10-01 10:45:00,
2014-10-01 03:50:00,60.5,43.3,29.89,NW,309,0.0,0.0,53,0.00,,,0.00,Wunderground v.1.15,2014-10-01 10:50:00,
2014-10-01 04:00:00,60.0,43.3,29.89,NW,309,0.0,0.0,54,0.00,,,0.00,Wunderground v.1.15,2014-10-01 11:00:00,
2014-10-01 04:05:00,59.9,43.2,29.89,NW,309,0.0,0.0,54,0.00,,,0.00,Wunderground v.1.15,2014-10-01 11:05:00,
2014-10-01 04:10:00,60.0,43.3,29.89,NW,309,0.0,0.0,54,0.00,,,0.00,Wunderground v.1.15,2014-10-01 11:10:00,
2014-10-01 04:15:00,60.1,42.9,29.89,NW,309,0.0,0.0,53,0.00,,,0.00,Wunderground v.1.15,2014-10-01 11:15:00,
2014-10-01 04:25:00,60.1,43.4,29.89,NW,309,1.0,2.0,54,0.00,,,0.00,Wunderground v.1.15,2014-10-01 11:25:00,
2014-10-01 04:35:00,60.0,43.3,29.90,NW,309,2.0,3.0,54,0.00,,,0.00,Wunderground v.1.15,2014-10-01 11:35:00,
2014-10-01 04:45:00,59.5,43.3,29.90,NW,309,2.0,4.0,55,0.00,,,0.00,Wunderground v.1.15,2014-10-01 11:45:00,
2014-10-01 04:50:00,59.3,43.1,29.90,NW,309,3.0,4.0,55,0.00,,,0.00,Wunderground v.1.15,2014-10-01 11:50:00,
2014-10-01 04:55:00,59.3,43.1,29.90,NW,309,4.0,5.0,55,0.00,,,0.00,Wunderground v.1.15,2014-10-01 11:55:00,
2014-10-01 05:05:00,59.5,42.8,29.91,NW,309,3.0,5.0,54,0.00,,,0.00,Wunderground v.1.15,2014-10-01 12:05:00,
2014-10-01 05:10:00,59.5,42.8,29.91,NW,310,3.0,3.0,54,0.00,,,0.00,Wunderground v.1.15,2014-10-01 12:10:00,
2014-10-01 05:15:00,59.4,42.7,29.91,NW,310,2.0,3.0,54,0.00,,,0.00,Wunderground v.1.15,2014-10-01 12:15:00,
2014-10-01 05:25:00,58.9,42.8,29.90,NW,310,0.0,2.0,55,0.00,,,0.00,Wunderground v.1.15,2014-10-01 12:25:00,
2014-10-01 05:35:00,58.4,42.8,29.91,NW,310,2.0,2.0,56,0.00,,,0.00,Wunderground v.1.15,2014-10-01 12:35:00,